Home > Weather > Nøtterøy > Past weeks

Flag for Norway Past Weather in Nøtterøy, Norway — Yesterday and Last 2 Weeks

Now
63 °F

Passing clouds.


Feels Like: 63 °F
Forecast: 60 / 71 °F
Wind: 12 mph from Southwest

Location: Torp

Current Time: Jul 27, 2016 at 9:55:12 AM

Latest Report: Jul 27, 2016 at 9:20 AM


Visibility: N/A

Pressure: 29.98 "Hg

Humidity: 73%

Dew Point: 54 °F

Location of NøtterøyLocation

Past Weather in Nøtterøy — Graph

°F

Nøtterøy Temperature Yesterday

Maximum temperature yesterday: 68 °F (at 12:50 PM)
Minimum temperature yesterday: 59 °F (at 11:50 PM)
Average temperature yesterday: 64 °F

High & Low Weather Summary for the Past Weeks

 TemperatureHumidityPressure
High75 °F (Jul 21, 1:20 PM)100% (Jul 12, 8:20 AM)30.15 "Hg (Jul 12, 8:20 AM)
Low50 °F (Jul 17, 4:50 AM)44% (Jul 16, 5:20 PM)29.47 "Hg (Jul 12, 8:20 AM)
Average63 °F86%29.93 "Hg
* Reported Jul 12 8:20 AM — Jul 27 8:20 AM, Nøtterøy, Weather by CustomWeather, © 2016

Note: Actual official high and low records may vary slightly from our data, if they occured in-between our weather recording intervals... More about our weather records

Advertising

Nøtterøy Weather History for the Previous 24 Hours

Scroll right to see more
 ConditionsComfort  
Time TempWeatherWind HumidityBarometerVisibility
8:20 AM
Wed, Jul 27
61 °FPassing clouds.9 mph83%29.95 "HgN/A
7:50 AM59 °FSunny.9 mph88%29.95 "Hg10 mi
7:20 AM57 °FPassing clouds.3 mph94%29.95 "HgN/A
6:50 AM57 °FSunny.5 mph94%29.95 "Hg10 mi
6:20 AM55 °FSunny.5 mph100%29.95 "Hg10 mi
5:50 AM55 °FClear.7 mph100%29.95 "Hg10 mi
5:20 AM55 °FCool.8 mph100%29.95 "HgN/A
4:50 AM55 °FCool.6 mph100%29.95 "HgN/A
4:20 AM57 °FPassing clouds.8 mph88%29.95 "HgN/A
3:50 AM57 °FPassing clouds.7 mph88%29.95 "HgN/A
3:20 AM55 °FCool.6 mph94%29.95 "HgN/A
2:50 AM55 °FCool.6 mph100%29.95 "HgN/A
2:20 AM55 °FCool.7 mph100%29.95 "HgN/A
1:50 AM57 °FCool.7 mph94%29.95 "HgN/A
1:20 AM57 °FCool.6 mph94%29.95 "HgN/A
12:50 AM57 °FCool.7 mph94%29.95 "HgN/A
12:20 AM59 °FCool.8 mph94%29.95 "HgN/A
11:50 PM
Tue, Jul 26
59 °FCool.8 mph94%29.95 "HgN/A
11:20 PM61 °FPassing clouds.8 mph94%29.95 "HgN/A
10:50 PM61 °FPassing clouds.8 mph94%29.95 "HgN/A
10:20 PM61 °FPassing clouds.9 mph94%29.95 "HgN/A
9:50 PM63 °FPassing clouds.10 mph88%29.95 "HgN/A
9:20 PM64 °FPassing clouds.9 mph83%29.95 "HgN/A
8:50 PM64 °FPassing clouds.10 mph83%29.92 "HgN/A
8:20 PM66 °FPassing clouds.12 mph78%29.92 "HgN/A
7:50 PM66 °FPassing clouds.12 mph78%29.92 "HgN/A
7:20 PM68 °FSunny.12 mph73%29.92 "Hg10 mi
6:50 PM68 °FPassing clouds.13 mph73%29.92 "HgN/A
6:20 PM68 °FPassing clouds.14 mph69%29.92 "HgN/A
5:50 PM68 °FPassing clouds.17 mph69%29.92 "HgN/A
5:20 PM68 °FPassing clouds.17 mph64%29.92 "HgN/A
4:50 PM68 °FPassing clouds.18 mph64%29.92 "HgN/A
4:20 PM68 °FPassing clouds.20 mph69%29.92 "HgN/A
3:50 PM68 °FPassing clouds.18 mph69%29.92 "HgN/A
3:20 PM68 °FPassing clouds.18 mph69%29.92 "HgN/A
2:50 PM66 °FPassing clouds.20 mph73%29.92 "HgN/A
2:20 PM68 °FPassing clouds.20 mph64%29.92 "HgN/A
1:50 PM68 °FPassing clouds.20 mph69%29.92 "HgN/A
1:20 PM68 °FScattered clouds.20 mph73%29.92 "HgN/A
12:50 PM68 °FScattered clouds.16 mph69%29.92 "HgN/A
12:20 PM66 °FBroken clouds.18 mph78%29.92 "HgN/A
11:50 AM66 °FScattered clouds.17 mph73%29.92 "HgN/A
11:20 AM64 °FScattered clouds.15 mph83%29.92 "HgN/A
10:50 AM64 °FScattered clouds.14 mph88%29.92 "HgN/A
10:20 AM63 °FBroken clouds.13 mph94%29.92 "HgN/A
9:50 AM63 °FBroken clouds.14 mph100%29.92 "HgN/A
9:20 AM63 °FBroken clouds.12 mph100%29.92 "HgN/A
Weather by CustomWeather, © 2016

See weather overviewHow to use our weather pages